Torna al catalogo

STARLINK-36337

AttivoComunicazioniVLEO
NORAD 68716·PAYLOAD·🇺🇸 United States

Lanciato Apr 14, 2026 da Cape Canaveral Space Force Station

Loading…

Prossimi Passaggi (prossime 24 ore)

TLE

AggiornatoSource: CelesTrak SupGP

Epoca: Sep 14, 2026, 22:37 UTC

1 68716C 26081T   26257.94284722  .00022150  00000+0  65422-3 0  2573
2 68716  53.1586 231.6609 0001479  91.0382 353.9030 15.34388493    11

Traccia STARLINK-36337 in tempo reale con AllMySat

Download on the App Store